Precipitable_Water
0.59 0.67 0.80 0.74 0.50 0.48 0.47 0.63 0.74 0.70 0.71 0.72 0.73 0.67 0.62 0.62 0.60 0.53 0.81 0.94 0.95 0.88 1.00 1.03 0.99 0.95 0.91 0.80 0.82 0.83 0.81 0.80 0.80 0.78 0.74 0.69 0.65 0.66 0.67 0.69 0.71 0.71 0.74 0.79 0.81 0.82 0.86 0.88 0.86
0.74 0.77 0.82 0.74 0.48 0.49 0.53 0.72 0.65 0.71 0.73 0.76 0.74 0.70 0.62 0.57 0.65 0.68 0.77 0.93 0.94 0.90 1.00 1.02 1.00 0.96 0.93 0.83 0.85 0.85 0.83 0.82 0.83 0.83 0.81 0.79 0.75 0.76 0.81 0.82 0.82 0.81 0.75 0.73 0.78 0.81 0.89 0.91 0.94
0.80 0.83 0.75 0.71 0.62 0.53 0.57 0.69 0.72 0.71 0.72 0.71 0.67 0.64 0.59 0.59 0.67 0.71 0.91 0.96 0.97 0.91 1.00 1.02 1.00 0.97 0.94 0.85 0.87 0.88 0.87 0.87 0.86 0.88 0.87 0.86 0.82 0.80 0.94 1.00 1.06 1.06 1.03 0.96 0.86 0.87 0.88 0.99 1.02
0.76 0.77 0.70 0.55 0.51 0.60 0.64 0.71 0.71 0.69 0.69 0.68 0.63 0.58 0.62 0.70 0.69 0.76 0.93 0.97 0.93 0.92 1.00 1.02 1.02 0.99 0.98 0.90 0.88 0.90 0.91 0.89 0.91 0.92 0.93 0.90 0.88 0.90 1.04 1.12 1.13 1.14 1.14 1.09 1.06 0.93 1.05 1.15 1.02
0.80 0.72 0.51 0.49 0.53 0.60 0.68 0.73 0.68 0.64 0.65 0.63 0.59 0.58 0.61 0.71 0.72 0.76 0.89 0.94 0.89 0.92 1.00 1.05 1.05 1.00 0.99 0.94 0.91 0.89 0.91 0.92 0.94 0.95 0.97 0.96 0.92 1.01 1.16 1.23 1.21 1.17 1.10 1.28 1.27 1.08 1.08 1.20 1.07
0.67 0.68 0.51 0.46 0.51 0.58 0.61 0.63 0.61 0.60 0.64 0.64 0.58 0.57 0.61 0.72 0.73 0.78 0.89 0.95 0.94 0.94 0.99 1.09 1.09 1.04 1.00 0.99 0.94 0.91 0.92 0.93 0.95 0.97 1.01 1.00 0.96 1.05 1.12 1.21 1.22 1.19 1.13 1.11 1.25 1.26 1.13 1.21 1.14
0.62 0.60 0.47 0.49 0.50 0.52 0.54 0.62 0.58 0.60 0.64 0.64 0.67 0.55 0.65 0.75 0.80 0.83 0.90 0.98 1.02 1.03 1.02 1.08 1.09 1.09 1.07 1.06 1.00 0.98 0.99 0.98 0.98 1.01 1.03 1.04 1.00 1.03 1.02 1.08 1.18 1.15 1.14 1.13 1.11 1.11 1.17 1.19 1.17
0.71 0.65 0.53 0.51 0.47 0.47 0.58 0.60 0.64 0.62 0.65 0.77 0.73 0.59 0.63 0.81 0.84 0.87 0.93 0.94 1.03 1.03 1.06 1.03 1.11 1.11 1.11 1.11 1.11 1.07 1.06 1.06 1.07 1.07 1.09 1.09 1.06 1.03 1.00 1.06 1.12 1.18 1.19 1.16 1.15 1.16 1.16 1.15 1.20
0.85 0.62 0.52 0.50 0.49 0.50 0.62 0.58 0.68 0.71 0.63 0.64 0.71 0.69 0.77 0.83 0.85 0.86 0.88 0.91 0.96 0.98 1.03 1.04 1.11 1.13 1.14 1.12 1.15 1.15 1.14 1.16 1.16 1.16 1.14 1.12 1.07 1.04 1.10 1.13 1.15 1.17 1.19 1.19 1.17 1.15 1.16 1.17 1.13
0.72 0.57 0.56 0.62 0.61 0.56 0.60 0.60 0.62 0.62 0.63 0.61 0.60 0.70 0.76 0.80 0.81 0.80 0.82 0.80 0.89 0.92 1.00 1.04 1.11 1.17 1.15 1.12 1.17 1.24 1.20 1.21 1.21 1.23 1.26 1.20 1.08 1.07 1.11 1.15 1.16 1.17 1.21 1.24 1.18 1.18 1.17 1.18 1.25
0.73 0.59 0.64 0.67 0.68 0.67 0.64 0.63 0.67 0.63 0.61 0.62 0.60 0.63 0.69 0.70 0.68 0.69 0.75 0.80 0.82 0.88 0.98 1.04 1.12 1.17 1.16 1.09 1.17 1.23 1.23 1.20 1.21 1.23 1.22 1.11 1.06 1.09 1.15 1.23 1.29 1.34 1.34 1.33 1.30 1.29 1.22 1.15 1.23
0.64 0.68 0.70 0.68 0.70 0.71 0.67 0.70 0.64 0.65 0.65 0.67 0.64 0.63 0.62 0.62 0.64 0.62 0.63 0.77 0.83 0.84 0.92 1.03 1.12 1.13 1.14 1.13 1.12 1.19 1.15 1.12 1.09 1.13 1.17 1.09 1.08 1.14 1.15 1.22 1.29 1.34 1.36 1.36 1.36 1.29 1.32 1.25 1.21
0.58 0.65 0.69 0.71 0.74 0.74 0.75 0.69 0.65 0.63 0.66 0.66 0.61 0.59 0.60 0.61 0.60 0.60 0.61 0.69 0.85 0.81 0.89 0.99 1.10 1.14 1.11 1.09 1.12 1.14 1.09 1.02 1.03 1.11 1.14 1.09 1.08 1.10 1.14 1.27 1.35 1.38 1.40 1.38 1.40 1.33 1.28 1.27 1.23
0.59 0.59 0.60 0.68 0.69 0.73 0.69 0.65 0.64 0.62 0.65 0.58 0.55 0.55 0.56 0.55 0.55 0.55 0.59 0.71 0.85 0.85 0.87 0.96 1.04 1.09 1.09 1.09 1.09 1.09 1.06 1.03 1.07 1.10 1.07 1.09 1.11 1.11 1.14 1.28 1.39 1.44 1.48 1.48 1.48 1.39 1.29 1.23 1.19
0.58 0.51 0.54 0.54 0.58 0.60 0.67 0.54 0.51 0.55 0.56 0.52 0.52 0.55 0.56 0.56 0.53 0.57 0.74 0.79 0.84 0.88 0.88 0.90 0.95 1.09 1.10 1.07 1.11 1.10 1.06 1.04 1.07 1.07 1.09 1.12 1.14 1.11 1.18 1.30 1.39 1.46 1.52 1.50 1.48 1.43 1.32 1.21 1.21
0.49 0.52 0.42 0.49 0.50 0.54 0.56 0.40 0.51 0.55 0.51 0.50 0.54 0.57 0.56 0.51 0.50 0.69 0.76 0.80 0.85 0.83 0.83 0.90 0.93 1.05 1.08 1.04 1.07 1.05 1.04 1.06 1.08 1.06 1.10 1.13 1.13 1.18 1.24 1.30 1.37 1.48 1.49 1.48 1.44 1.38 1.23 1.18 1.23
0.44 0.35 0.37 0.43 0.52 0.45 0.45 0.37 0.49 0.51 0.50 0.52 0.55 0.58 0.55 0.45 0.53 0.67 0.74 0.78 0.79 0.81 0.84 0.85 0.90 1.00 1.04 1.10 1.11 1.04 1.07 1.07 1.07 1.09 1.11 1.10 1.16 1.22 1.28 1.34 1.44 1.54 1.47 1.45 1.41 1.35 1.18 1.23 1.25
0.35 0.37 0.40 0.42 0.50 0.43 0.38 0.35 0.46 0.48 0.49 0.52 0.55 0.56 0.50 0.41 0.55 0.65 0.73 0.74 0.77 0.82 0.80 0.84 0.90 0.98 1.07 1.09 1.10 1.05 1.06 1.07 1.09 1.10 1.08 1.13 1.17 1.27 1.34 1.42 1.49 1.51 1.46 1.41 1.38 1.22 1.26 1.28 1.27
0.43 0.42 0.40 0.44 0.49 0.45 0.38 0.36 0.43 0.50 0.54 0.53 0.55 0.53 0.46 0.48 0.64 0.70 0.74 0.78 0.80 0.77 0.81 0.87 0.92 1.04 1.04 1.02 0.96 0.96 0.95 1.03 1.09 1.08 1.10 1.10 1.21 1.30 1.38 1.48 1.50 1.50 1.41 1.35 1.27 1.24 1.29 1.26 1.30
0.38 0.40 0.39 0.45 0.49 0.46 0.41 0.40 0.48 0.53 0.54 0.54 0.52 0.49 0.43 0.55 0.66 0.70 0.75 0.78 0.77 0.79 0.86 0.91 0.97 1.04 1.01 1.01 1.01 1.01 1.03 1.08 1.06 1.04 1.04 1.14 1.23 1.34 1.45 1.47 1.47 1.44 1.33 1.28 1.24 1.28 1.20 1.17 1.24
0.32 0.32 0.35 0.37 0.42 0.43 0.40 0.35 0.39 0.50 0.54 0.54 0.52 0.47 0.43 0.53 0.64 0.68 0.71 0.74 0.76 0.76 0.82 0.86 0.95 0.99 1.01 1.03 1.04 1.03 1.04 0.99 0.91 0.92 1.03 1.15 1.27 1.39 1.49 1.49 1.45 1.34 1.22 1.18 1.26 1.26 1.18 1.07 1.17
0.25 0.32 0.32 0.36 0.33 0.26 0.40 0.27 0.39 0.48 0.49 0.51 0.48 0.45 0.45 0.59 0.66 0.68 0.69 0.70 0.71 0.77 0.84 0.91 0.93 0.96 1.01 1.00 0.99 0.94 0.87 0.79 0.83 0.91 1.04 1.18 1.35 1.44 1.51 1.44 1.40 1.25 1.23 1.30 1.29 1.25 1.18 1.17 1.01
0.22 0.31 0.33 0.35 0.32 0.32 0.34 0.34 0.35 0.48 0.44 0.46 0.44 0.41 0.49 0.63 0.64 0.67 0.65 0.70 0.76 0.83 0.85 0.91 0.93 0.95 1.00 0.99 0.99 0.88 0.78 0.80 0.92 0.99 1.11 1.34 1.42 1.49 1.47 1.35 1.26 1.28 1.33 1.32 1.23 1.16 1.17 1.19 1.21
0.27 0.26 0.32 0.35 0.32 0.26 0.35 0.37 0.36 0.41 0.46 0.42 0.42 0.39 0.48 0.67 0.67 0.69 0.70 0.74 0.79 0.85 0.88 0.91 0.90 0.95 0.99 0.97 0.92 0.79 0.77 0.87 0.95 1.10 1.27 1.36 1.41 1.48 1.38 1.26 1.31 1.32 1.32 1.19 1.16 1.14 1.23 1.26 1.27
0.24 0.23 0.22 0.25 0.26 0.26 0.41 0.39 0.38 0.47 0.42 0.40 0.35 0.41 0.63 0.66 0.64 0.64 0.66 0.72 0.79 0.80 0.85 0.86 0.93 0.88 0.93 0.91 0.82 0.80 0.90 0.97 1.09 1.23 1.29 1.31 1.35 1.36 1.18 1.24 1.25 1.27 1.18 1.17 1.11 1.24 1.32 1.27 1.28
0.21 0.23 0.20 0.21 0.26 0.32 0.42 0.32 0.37 0.42 0.43 0.39 0.38 0.41 0.66 0.65 0.66 0.65 0.69 0.75 0.77 0.82 0.84 0.85 0.84 0.82 0.84 0.83 0.83 0.93 1.02 1.11 1.19 1.32 1.33 1.32 1.32 1.26 1.19 1.28 1.28 1.17 1.11 1.18 1.31 1.33 1.32 1.36 1.32
0.23 0.22 0.29 0.30 0.36 0.30 0.34 0.38 0.41 0.41 0.31 0.27 0.32 0.39 0.57 0.62 0.62 0.66 0.73 0.77 0.81 0.85 0.83 0.79 0.79 0.77 0.78 0.83 0.91 1.00 1.10 1.17 1.21 1.32 1.36 1.38 1.29 1.19 1.24 1.29 1.24 1.12 1.18 1.28 1.31 1.31 1.29 1.37 1.36
0.26 0.32 0.26 0.30 0.27 0.26 0.29 0.29 0.32 0.33 0.27 0.28 0.40 0.43 0.51 0.61 0.64 0.71 0.74 0.78 0.84 0.84 0.79 0.79 0.72 0.74 0.80 0.88 0.94 1.04 1.13 1.17 1.25 1.37 1.32 1.33 1.29 1.16 1.25 1.25 1.21 1.16 1.19 1.24 1.25 1.26 1.29 1.33 1.36
0.23 0.25 0.29 0.34 0.33 0.28 0.26 0.27 0.33 0.30 0.31 0.40 0.44 0.49 0.55 0.60 0.65 0.71 0.74 0.80 0.81 0.81 0.76 0.68 0.71 0.76 0.80 0.88 0.92 1.03 1.12 1.23 1.30 1.36 1.27 1.31 1.30 1.18 1.18 1.21 1.20 1.15 1.18 1.21 1.25 1.27 1.31 1.36 1.35
0.25 0.25 0.30 0.28 0.29 0.29 0.27 0.25 0.34 0.40 0.44 0.43 0.48 0.56 0.62 0.65 0.67 0.71 0.74 0.74 0.76 0.74 0.67 0.64 0.68 0.73 0.79 0.82 0.88 1.04 1.18 1.27 1.33 1.29 1.27 1.34 1.23 1.18 1.17 1.20 1.22 1.20 1.23 1.25 1.28 1.24 1.29 1.28 1.27
Wind_Speed
10 10 8 7 7 9 11 8 6 6 7 8 11 11 12 15 15 14 15 13 13 12 12 13 13 14 13 13 13 12 13 14 15 16 17 18 18 19 20 20 20 21 22 22 21 21 22 22 21
11 10 9 8 10 11 10 8 9 8 11 13 12 14 15 16 15 16 15 14 14 13 13 14 14 14 14 14 13 13 13 14 16 17 18 18 19 20 20 21 21 22 23 23 23 23 23 23 23
13 12 11 10 12 12 9 10 8 10 11 11 12 13 13 14 15 16 16 13 13 14 14 15 15 15 14 14 14 14 15 16 17 18 19 19 20 20 20 20 21 22 22 23 24 24 24 24 24
14 13 14 14 14 12 13 10 11 13 11 12 14 14 13 15 14 14 15 13 14 15 15 16 16 16 16 15 15 16 17 18 18 19 20 20 21 21 20 21 21 22 22 23 23 24 24 25 25
16 15 17 17 17 15 14 16 16 16 14 14 13 13 14 14 15 15 14 15 15 16 17 17 17 17 17 17 17 18 18 19 19 20 21 22 22 22 22 22 22 22 22 23 23 24 25 25 25
18 17 19 19 19 16 16 16 17 18 17 15 14 16 14 14 15 16 15 16 16 17 18 18 18 17 17 17 18 19 19 19 20 21 22 23 23 23 23 22 23 22 23 23 23 24 24 26 25
23 20 22 22 19 18 19 16 16 16 15 15 16 17 15 15 17 17 18 18 18 19 19 19 18 18 18 18 19 19 19 20 21 22 23 24 24 23 23 22 21 21 22 23 23 24 25 25 26
23 23 26 23 21 20 15 16 15 15 16 18 18 18 17 20 20 21 21 21 20 21 21 20 20 19 19 19 20 20 20 21 22 23 23 24 24 24 23 21 21 21 21 21 23 23 25 26 26
26 26 27 26 23 21 17 20 18 20 23 24 23 24 25 25 24 24 23 23 23 23 23 23 21 20 20 20 19 20 21 22 22 23 24 24 24 23 22 21 21 21 21 21 22 22 23 24 26
29 30 33 31 26 26 26 24 25 25 26 27 27 26 25 26 27 28 27 27 26 26 25 25 24 22 21 20 20 21 21 22 22 23 23 24 24 23 22 22 22 22 23 22 22 22 23 23 23
36 39 35 34 32 31 32 32 30 30 30 29 29 28 29 31 31 31 31 31 29 28 28 26 25 24 23 22 21 21 21 22 23 23 24 24 24 24 22 21 20 20 20 20 20 20 21 23 23
43 42 39 39 37 36 36 36 35 33 33 32 32 32 33 35 36 36 36 35 32 29 28 27 25 25 23 22 22 22 22 22 23 23 24 25 24 23 22 21 21 20 20 20 20 21 21 22 24
46 42 41 38 39 40 38 39 39 37 33 34 33 33 35 37 39 41 40 36 33 28 26 26 25 25 24 24 22 22 23 23 23 23 24 24 23 23 22 21 21 21 21 21 21 21 20 21 21
41 42 43 42 40 38 39 41 39 37 34 35 34 34 36 37 39 38 34 32 28 26 25 25 25 25 24 25 24 24 23 23 23 24 24 24 23 23 22 21 21 21 20 20 20 20 19 19 20
43 42 42 39 39 39 36 41 39 36 35 35 33 34 36 37 36 32 28 25 24 24 24 25 24 23 24 25 24 24 23 23 23 24 24 24 23 23 22 22 22 20 20 20 20 19 19 19 18
39 42 43 41 38 37 35 42 35 32 32 33 32 34 36 36 32 27 24 23 23 24 24 23 24 25 25 24 23 23 23 23 24 24 24 24 24 23 22 22 22 21 21 20 19 18 18 18 18
42 42 44 39 36 35 37 44 36 32 30 31 33 35 35 33 28 24 22 22 22 23 23 23 24 23 23 21 22 22 22 23 23 24 24 24 24 23 22 23 22 21 20 18 17 17 17 17 17
38 39 40 41 34 32 37 42 36 35 35 35 35 35 32 29 26 22 21 20 20 19 18 19 20 21 21 21 20 21 21 22 23 23 23 24 23 23 22 22 21 19 18 17 17 17 17 17 17
40 42 40 34 34 36 39 39 35 33 34 36 36 34 32 27 22 20 19 18 17 16 17 18 19 18 18 19 19 20 21 21 22 23 23 23 22 22 21 19 18 17 16 16 16 16 16 16 16
41 40 41 37 35 36 37 41 38 37 38 38 37 33 29 23 20 18 17 16 15 15 17 18 18 17 18 17 18 18 19 20 21 22 22 21 21 19 19 19 17 16 15 13 13 14 13 13 15
41 41 36 37 33 35 37 42 41 39 39 35 31 28 27 23 20 16 14 14 14 14 14 15 15 15 15 14 15 16 17 19 20 19 19 19 19 18 18 16 14 12 11 11 11 11 12 12 13
42 36 34 35 33 36 33 38 38 32 32 32 30 27 24 21 18 16 14 14 13 12 12 11 11 12 12 13 14 15 16 17 17 18 18 19 18 17 15 12 11 9 9 10 9 9 10 11 12
44 34 33 33 34 35 37 33 33 29 29 29 25 24 22 19 17 15 14 12 11 9 9 9 9 10 11 12 13 14 15 15 15 16 17 17 16 13 10 8 7 7 8 7 7 8 11 12 12
35 29 30 29 30 33 32 33 34 30 28 26 23 21 21 17 14 13 12 10 9 8 7 8 8 9 9 10 11 12 12 12 14 14 16 14 11 8 6 5 5 5 5 6 9 11 10 10 11
39 33 24 25 27 29 27 28 30 26 20 23 20 17 17 16 13 12 12 10 9 7 7 7 8 8 8 9 9 9 10 11 12 13 12 11 7 5 3 3 3 3 6 10 12 11 10 10 10
41 38 28 27 25 23 25 20 20 15 22 24 21 17 17 16 13 12 12 10 8 7 6 7 7 7 7 7 7 7 8 9 10 11 10 8 4 2 1 2 4 7 11 13 11 9 9 10 11
40 38 34 22 19 17 19 21 18 20 19 17 17 20 19 16 13 13 12 10 8 7 6 6 6 6 6 6 5 6 7 8 10 9 8 5 2 1 3 5 7 10 12 10 9 8 10 10 9
40 34 30 27 26 22 18 16 14 11 14 15 15 17 18 16 14 13 12 10 8 7 6 6 5 5 4 4 5 5 6 7 8 7 4 3 2 4 6 7 9 10 10 9 9 9 9 9 9
36 37 32 29 22 21 14 13 12 17 14 15 14 15 16 16 15 14 11 10 8 7 6 6 5 4 4 4 4 5 6 6 5 4 3 3 4 6 7 8 10 10 10 10 9 8 9 9 9
41 34 37 25 27 18 14 11 5 12 10 16 13 13 15 16 15 13 11 10 9 7 6 6 5 4 3 3 3 3 4 2 4 3 4 4 5 7 8 9 10 10 9 8 8 9 9 9 9
Wind_Direction
199 197 206 225 247 254 249 242 274 257 269 295 302 295 297 304 305 309 302 291 293 283 289 285 286 292 295 295 297 299 303 306 307 307 306 303 298 291 285 279 273 269 266 264 261 258 255 253 251
207 210 225 245 257 250 242 250 248 275 292 296 293 291 293 296 298 300 297 285 288 283 287 284 284 289 292 292 292 296 301 306 308 308 307 305 302 295 288 280 275 271 268 264 261 258 255 252 250
215 227 243 251 254 260 263 238 258 280 291 292 296 300 302 302 303 301 301 282 283 280 285 284 283 287 288 290 289 292 298 303 305 307 307 305 302 298 288 284 279 272 269 265 262 258 255 252 250
226 238 249 252 251 259 260 250 268 278 281 290 299 294 298 303 309 304 298 284 282 278 282 285 281 283 283 285 287 290 294 299 303 306 307 306 303 298 291 283 281 276 270 267 263 259 256 253 251
236 247 251 252 257 261 257 264 275 274 280 289 297 291 298 303 304 306 299 285 281 277 279 285 281 279 280 281 286 289 291 296 300 304 306 307 304 299 291 284 281 276 272 267 263 262 256 254 253
241 251 250 251 254 258 262 266 271 273 271 282 288 290 293 302 306 304 300 290 283 280 278 282 279 276 278 281 286 288 290 294 299 301 304 305 304 299 293 287 282 277 273 268 265 262 258 254 253
245 245 253 259 263 260 264 265 266 273 270 276 292 286 290 295 306 304 297 292 286 280 277 278 277 275 276 282 286 286 290 294 298 300 302 304 303 301 296 289 283 279 274 270 266 261 258 257 254
245 252 254 255 259 262 259 258 275 274 278 283 286 286 282 297 298 300 295 291 285 280 275 273 274 274 276 282 284 285 290 294 296 299 301 303 303 301 297 290 284 281 278 273 267 263 260 257 255
245 250 253 253 256 258 251 261 268 276 279 284 281 282 284 290 292 295 295 290 285 280 273 269 269 272 276 281 283 284 289 292 296 298 301 302 302 300 297 290 283 282 280 275 270 266 262 259 256
243 250 253 256 259 259 262 263 275 276 278 281 283 279 280 284 289 290 290 289 285 277 272 267 265 268 275 278 281 284 286 290 295 298 301 302 301 299 296 291 285 282 280 275 271 267 263 259 256
248 254 259 255 256 260 266 266 271 275 275 278 284 285 285 286 287 289 287 286 285 279 271 264 263 265 269 274 280 284 285 290 294 296 300 301 299 298 295 292 287 284 280 275 271 268 263 257 254
251 259 256 258 259 259 261 265 269 272 275 278 281 284 284 285 286 287 286 282 281 277 266 260 261 262 265 271 276 281 285 290 294 296 299 300 299 297 294 291 287 283 280 275 273 270 266 260 256
252 256 256 257 258 259 261 263 269 270 276 277 280 282 286 287 287 286 283 278 275 270 262 259 261 261 262 265 274 278 284 289 293 296 299 299 297 296 294 291 288 283 280 276 274 271 265 260 255
254 255 255 255 257 259 260 264 267 268 274 276 279 284 288 291 291 289 283 274 266 263 262 260 261 259 259 264 270 276 282 287 292 295 298 298 296 296 293 291 290 285 280 276 274 270 263 259 253
252 253 255 254 256 257 261 263 261 269 271 273 277 284 290 293 293 288 281 268 261 264 262 258 258 259 260 264 268 274 280 285 291 295 297 296 295 295 290 290 289 286 281 278 273 267 261 256 252
249 249 252 251 253 255 252 262 264 268 270 273 279 286 291 293 291 284 273 267 263 265 260 260 258 261 261 263 267 272 278 285 290 294 296 295 295 293 289 289 288 284 282 279 268 263 258 254 250
243 247 247 252 252 255 248 261 263 265 268 273 281 288 293 292 286 277 271 266 266 266 262 260 258 261 258 263 265 271 278 284 290 293 295 296 294 291 289 290 288 282 281 274 262 258 255 255 249
240 245 251 255 251 252 254 259 261 262 266 273 282 287 290 289 280 273 270 269 268 264 258 259 261 260 257 259 266 272 279 285 290 293 295 296 294 292 290 291 287 282 276 269 259 258 255 254 248
248 248 251 250 251 254 257 260 260 263 267 273 280 283 286 284 273 269 267 269 263 259 259 262 261 259 257 259 265 272 280 285 291 294 296 296 295 293 292 290 287 280 273 265 259 255 253 249 237
244 247 250 253 251 253 259 261 263 263 268 273 277 277 278 271 268 268 263 260 257 261 265 263 259 257 258 260 267 275 282 288 292 296 297 297 298 294 292 289 285 279 270 257 250 250 248 236 222
239 242 247 253 256 257 261 263 262 264 265 270 266 267 269 261 260 258 258 256 258 261 266 263 258 253 254 260 270 278 287 291 294 296 299 299 299 296 294 289 284 269 257 253 250 243 233 220 213
238 236 247 254 254 257 256 266 260 264 264 265 262 267 259 247 246 253 255 255 256 260 261 261 252 245 254 263 273 282 289 294 298 299 302 303 299 295 292 285 272 258 253 250 241 231 213 202 190
240 239 245 250 254 261 254 258 260 259 263 262 256 255 248 238 243 247 252 246 242 251 255 257 247 252 259 265 279 286 290 296 300 304 307 307 303 296 289 281 260 254 250 235 217 197 188 187 185
232 235 239 246 250 253 253 253 258 256 260 258 256 248 232 225 237 242 232 223 233 248 257 248 249 254 259 272 283 289 293 299 305 310 312 311 308 295 285 268 259 247 228 201 179 173 173 177 181
217 216 228 237 239 253 252 253 256 254 250 238 245 237 217 220 226 223 211 219 228 243 252 244 247 254 263 276 287 292 297 305 312 318 322 320 312 299 276 257 223 196 166 156 155 160 165 177 181
211 211 222 231 242 254 238 251 245 236 237 246 244 227 211 214 215 212 211 213 223 237 241 241 244 253 266 276 287 297 304 312 321 326 329 331 327 293 231 177 153 144 145 146 151 154 156 158 159
207 217 221 237 240 253 237 242 254 239 240 237 229 218 209 209 210 206 204 213 221 230 234 237 241 254 266 270 284 301 310 318 327 330 335 344 15 94 133 142 141 145 150 152 155 152 153 154 151
209 208 210 223 234 235 240 238 226 219 231 219 213 203 202 202 202 202 204 208 218 223 225 229 236 248 251 266 284 303 317 323 330 336 351 14 64 120 130 137 140 147 155 159 156 153 157 159 154
202 206 214 217 224 221 227 228 215 224 224 197 195 198 196 196 199 196 198 205 211 212 219 217 224 240 246 267 287 303 321 329 342 357 25 55 111 128 135 136 139 144 147 152 156 158 158 156 148
205 208 206 211 209 224 211 213 216 216 211 201 207 190 189 189 187 189 195 201 199 205 204 206 216 234 241 262 276 311 332 5 14 59 73 77 117 133 142 143 142 145 150 153 156 154 154 156 156